Time,TemperatureF,DewpointF,PressureIn,WindDirection,WindDirectionDegrees,WindSpeedMPH,WindSpeedGustMPH,Humidity,HourlyPrecipIn,Conditions,Clouds,dailyrainin,SoftwareType,DateUTC
2013-04-12 00:02:00,43.0,40.0,-100.00,East,80,13.0,16.0,90,-99.99,,,-99.99,,2013-04-12 04:02:00,
2013-04-12 00:12:00,43.0,40.0,-100.00,East,80,13.0,16.0,90,-99.99,,,-99.99,,2013-04-12 04:12:00,
2013-04-12 00:22:00,43.0,40.0,-100.00,East,80,16.0,16.0,90,-99.99,,,-99.99,,2013-04-12 04:22:00,
2013-04-12 00:33:00,43.0,40.0,-100.00,East,90,16.0,18.0,90,-99.99,,,-99.99,,2013-04-12 04:33:00,
2013-04-12 00:42:00,43.0,40.0,-100.00,East,90,16.0,18.0,90,-99.99,,,-99.99,,2013-04-12 04:42:00,
2013-04-12 00:52:00,43.0,40.0,-100.00,East,90,16.0,18.0,90,-99.99,,,-99.99,,2013-04-12 04:52:00,
2013-04-12 01:02:00,43.0,40.0,-100.00,East,80,13.0,18.0,89,-99.99,,,-99.99,,2013-04-12 05:02:00,
2013-04-12 01:11:00,43.0,40.0,-100.00,East,80,13.0,18.0,89,-99.99,,,-99.99,,2013-04-12 05:11:00,
2013-04-12 01:22:00,43.0,40.0,-100.00,East,80,13.0,16.0,90,-99.99,,,-99.99,,2013-04-12 05:22:00,
2013-04-12 01:32:00,43.0,40.0,-100.00,East,80,13.0,16.0,90,-99.99,,,-99.99,,2013-04-12 05:32:00,
2013-04-12 01:42:00,43.0,40.0,-100.00,East,90,16.0,18.0,90,-99.99,,,-99.99,,2013-04-12 05:42:00,
2013-04-12 01:51:00,43.0,40.0,-100.00,East,90,16.0,18.0,90,-99.99,,,-99.99,,2013-04-12 05:51:00,
2013-04-12 02:01:00,43.0,40.0,-100.00,East,90,18.0,20.0,89,-99.99,,,-99.99,,2013-04-12 06:01:00,
2013-04-12 02:11:00,43.0,40.0,-100.00,East,90,18.0,20.0,89,-99.99,,,-99.99,,2013-04-12 06:11:00,
2013-04-12 02:21:00,43.0,40.0,-100.00,East,100,18.0,22.0,88,-99.99,,,-99.99,,2013-04-12 06:21:00,
2013-04-12 02:31:00,43.0,40.0,-100.00,East,80,18.0,22.0,88,-99.99,,,-99.99,,2013-04-12 06:31:00,
2013-04-12 02:42:00,43.0,40.0,-100.00,East,80,18.0,22.0,88,-99.99,,,-99.99,,2013-04-12 06:42:00,
2013-04-12 02:52:00,43.0,40.0,-100.00,East,80,18.0,22.0,88,-99.99,,,-99.99,,2013-04-12 06:52:00,
2013-04-12 03:01:00,43.0,39.0,-100.00,East,80,18.0,22.0,87,-99.99,,,-99.99,,2013-04-12 07:01:00,
2013-04-12 03:11:00,43.0,39.0,-100.00,East,80,18.0,22.0,87,-99.99,,,-99.99,,2013-04-12 07:11:00,
2013-04-12 03:21:00,43.0,39.0,-100.00,East,80,20.0,25.0,86,-99.99,,,-99.99,,2013-04-12 07:21:00,
2013-04-12 03:31:00,43.0,39.0,-100.00,East,80,20.0,25.0,86,-99.99,,,-99.99,,2013-04-12 07:31:00,
2013-04-12 03:41:00,43.0,39.0,-100.00,East,80,18.0,25.0,84,-99.99,,,-99.99,,2013-04-12 07:41:00,
2013-04-12 03:52:00,43.0,39.0,-100.00,East,80,18.0,25.0,84,-99.99,,,-99.99,,2013-04-12 07:52:00,
2013-04-12 04:02:00,43.0,38.0,-100.00,East,80,18.0,22.0,82,-99.99,,,-99.99,,2013-04-12 08:02:00,
2013-04-12 04:11:00,43.0,38.0,-100.00,East,80,18.0,22.0,82,-99.99,,,-99.99,,2013-04-12 08:11:00,
2013-04-12 04:21:00,43.0,38.0,-100.00,East,80,20.0,25.0,80,-99.99,,,-99.99,,2013-04-12 08:21:00,
2013-04-12 04:41:00,43.0,37.0,-100.00,East,80,20.0,25.0,79,-99.99,,,-99.99,,2013-04-12 08:41:00,
2013-04-12 04:51:00,43.0,37.0,-100.00,East,80,20.0,25.0,79,-99.99,,,-99.99,,2013-04-12 08:51:00,
2013-04-12 05:01:00,44.0,37.0,-100.00,East,80,20.0,27.0,76,-99.99,,,-99.99,,2013-04-12 09:01:00,
2013-04-12 05:21:00,44.0,36.0,-100.00,East,90,22.0,27.0,75,-99.99,,,-99.99,,2013-04-12 09:21:00,
2013-04-12 05:32:00,44.0,36.0,-100.00,East,90,22.0,27.0,75,-99.99,,,-99.99,,2013-04-12 09:32:00,
2013-04-12 05:42:00,44.0,36.0,-100.00,East,90,22.0,27.0,75,-99.99,,,-99.99,,2013-04-12 09:42:00,
2013-04-12 05:52:00,44.0,36.0,-100.00,East,90,22.0,27.0,75,-99.99,,,-99.99,,2013-04-12 09:52:00,
2013-04-12 06:02:00,43.0,37.0,-100.00,East,90,22.0,25.0,79,-99.99,,,-99.99,,2013-04-12 10:02:00,
2013-04-12 06:12:00,43.0,37.0,-100.00,East,90,22.0,25.0,79,-99.99,,,-99.99,,2013-04-12 10:12:00,
2013-04-12 06:22:00,43.0,37.0,-100.00,East,90,20.0,27.0,79,-99.99,,,-99.99,,2013-04-12 10:22:00,
2013-04-12 06:33:00,43.0,37.0,-100.00,East,90,20.0,27.0,79,-99.99,,,-99.99,,2013-04-12 10:33:00,
2013-04-12 06:42:00,43.0,37.0,-100.00,East,90,22.0,27.0,78,-99.99,,,-99.99,,2013-04-12 10:42:00,
2013-04-12 06:52:00,43.0,37.0,-100.00,East,90,22.0,27.0,78,-99.99,,,-99.99,,2013-04-12 10:52:00,
2013-04-12 07:01:00,43.0,36.0,-100.00,East,100,25.0,29.0,76,-99.99,,,-99.99,,2013-04-12 11:01:00,
2013-04-12 07:11:00,43.0,36.0,-100.00,East,100,25.0,29.0,76,-99.99,,,-99.99,,2013-04-12 11:11:00,
2013-04-12 07:21:00,43.0,36.0,-100.00,East,100,22.0,29.0,75,-99.99,,,-99.99,,2013-04-12 11:21:00,
2013-04-12 07:32:00,43.0,36.0,-100.00,East,100,22.0,29.0,75,-99.99,,,-99.99,,2013-04-12 11:32:00,
2013-04-12 07:42:00,43.0,36.0,-100.00,East,100,25.0,29.0,74,-99.99,,,-99.99,,2013-04-12 11:42:00,
2013-04-12 07:51:00,43.0,36.0,-100.00,East,100,25.0,29.0,74,-99.99,,,-99.99,,2013-04-12 11:51:00,
2013-04-12 08:01:00,43.0,35.0,-100.00,East,100,27.0,34.0,73,-99.99,,,-99.99,,2013-04-12 12:01:00,
2013-04-12 08:12:00,43.0,35.0,-100.00,East,100,27.0,34.0,73,-99.99,,,-99.99,,2013-04-12 12:12:00,
2013-04-12 08:21:00,43.0,36.0,-100.00,East,100,29.0,38.0,76,-99.99,,,-99.99,,2013-04-12 12:21:00,
2013-04-12 08:31:00,43.0,36.0,-100.00,East,100,29.0,38.0,76,-99.99,,,-99.99,,2013-04-12 12:31:00,
2013-04-12 09:11:00,43.0,35.0,-100.00,ESE,110,31.0,43.0,72,-99.99,,,-99.99,,2013-04-12 13:11:00,
2013-04-12 09:21:00,43.0,35.0,-100.00,ESE,110,31.0,43.0,72,-99.99,,,-99.99,,2013-04-12 13:21:00,
2013-04-12 09:31:00,43.0,35.0,-100.00,ESE,110,31.0,43.0,72,-99.99,,,-99.99,,2013-04-12 13:31:00,
2013-04-12 09:41:00,43.0,35.0,-100.00,ESE,110,31.0,40.0,73,-99.99,,,-99.99,,2013-04-12 13:41:00,
2013-04-12 09:52:00,43.0,35.0,-100.00,ESE,110,31.0,40.0,73,-99.99,,,-99.99,,2013-04-12 13:52:00,
2013-04-12 10:02:00,42.0,35.0,-100.00,ESE,110,34.0,43.0,74,-99.99,,,-99.99,,2013-04-12 14:02:00,
2013-04-12 10:11:00,42.0,35.0,-100.00,ESE,110,34.0,43.0,74,-99.99,,,-99.99,,2013-04-12 14:11:00,
2013-04-12 10:21:00,42.0,35.0,-100.00,ESE,110,34.0,43.0,75,-99.99,,,-99.99,,2013-04-12 14:21:00,
2013-04-12 10:31:00,42.0,35.0,-100.00,ESE,110,34.0,43.0,75,-99.99,,,-99.99,,2013-04-12 14:31:00,
2013-04-12 10:41:00,42.0,35.0,-100.00,ESE,110,34.0,47.0,77,-99.99,,,-99.99,,2013-04-12 14:41:00,
2013-04-12 10:51:00,42.0,35.0,-100.00,ESE,110,34.0,47.0,77,-99.99,,,-99.99,,2013-04-12 14:51:00,
2013-04-12 11:01:00,41.0,37.0,-100.00,ESE,110,34.0,45.0,85,-99.99,,,-99.99,,2013-04-12 15:01:00,
2013-04-12 11:11:00,41.0,37.0,-100.00,ESE,110,34.0,45.0,85,-99.99,,,-99.99,,2013-04-12 15:11:00,
2013-04-12 11:32:00,41.0,37.0,-100.00,ESE,110,31.0,43.0,86,-99.99,,,-99.99,,2013-04-12 15:32:00,
2013-04-12 11:42:00,41.0,38.0,-100.00,ESE,110,34.0,43.0,89,-99.99,,,-99.99,,2013-04-12 15:42:00,
2013-04-12 11:52:00,41.0,38.0,-100.00,ESE,110,34.0,43.0,89,-99.99,,,-99.99,,2013-04-12 15:52:00,
2013-04-12 12:03:00,40.0,38.0,-100.00,ESE,110,34.0,40.0,90,-99.99,,,-99.99,,2013-04-12 16:03:00,
2013-04-12 12:12:00,40.0,38.0,-100.00,ESE,110,34.0,40.0,90,-99.99,,,-99.99,,2013-04-12 16:12:00,
2013-04-12 13:02:00,40.0,38.0,-100.00,East,100,31.0,38.0,92,-99.99,,,-99.99,,2013-04-12 17:02:00,
2013-04-12 13:11:00,40.0,38.0,-100.00,East,100,31.0,38.0,92,-99.99,,,-99.99,,2013-04-12 17:11:00,
2013-04-12 13:22:00,40.0,38.0,-100.00,East,100,29.0,36.0,93,-99.99,,,-99.99,,2013-04-12 17:22:00,
2013-04-12 13:32:00,40.0,38.0,-100.00,East,100,29.0,36.0,93,-99.99,,,-99.99,,2013-04-12 17:32:00,
2013-04-12 13:42:00,40.0,38.0,-100.00,East,100,34.0,40.0,92,-99.99,,,-99.99,,2013-04-12 17:42:00,
2013-04-12 13:52:00,40.0,38.0,-100.00,East,100,34.0,40.0,92,-99.99,,,-99.99,,2013-04-12 17:52:00,
2013-04-12 14:02:00,40.0,38.0,-100.00,East,100,31.0,40.0,91,-99.99,,,-99.99,,2013-04-12 18:02:00,
2013-04-12 14:11:00,40.0,38.0,-100.00,East,100,31.0,40.0,91,-99.99,,,-99.99,,2013-04-12 18:11:00,
2013-04-12 15:00:00,40.0,38.0,-100.00,East,100,31.0,36.0,93,-99.99,,,-99.99,,2013-04-12 19:00:00,
2013-04-12 15:31:00,40.0,38.0,-100.00,East,100,31.0,40.0,92,-99.99,,,-99.99,,2013-04-12 19:31:00,
2013-04-12 15:42:00,40.0,38.0,-100.00,East,100,31.0,36.0,93,-99.99,,,-99.99,,2013-04-12 19:42:00,
2013-04-12 15:52:00,40.0,38.0,-100.00,East,100,31.0,36.0,93,-99.99,,,-99.99,,2013-04-12 19:52:00,
2013-04-12 16:52:00,41.0,39.0,-100.00,East,80,27.0,36.0,93,-99.99,,,-99.99,,2013-04-12 20:52:00,
2013-04-12 17:11:00,41.0,39.0,-100.00,East,80,27.0,36.0,93,-99.99,,,-99.99,,2013-04-12 21:11:00,
2013-04-12 17:21:00,41.0,39.0,-100.00,East,80,27.0,36.0,93,-99.99,,,-99.99,,2013-04-12 21:21:00,
2013-04-12 17:32:00,41.0,39.0,-100.00,East,80,25.0,31.0,94,-99.99,,,-99.99,,2013-04-12 21:32:00,
2013-04-12 17:42:00,41.0,39.0,-100.00,East,80,25.0,31.0,94,-99.99,,,-99.99,,2013-04-12 21:42:00,
2013-04-12 17:52:00,41.0,39.0,-100.00,East,80,25.0,31.0,94,-99.99,,,-99.99,,2013-04-12 21:52:00,
2013-04-12 18:00:00,41.0,40.0,-100.00,ENE,60,18.0,20.0,93,-99.99,,,-99.99,,2013-04-12 22:00:00,
2013-04-12 18:02:00,41.0,40.0,-100.00,ENE,70,22.0,27.0,94,-99.99,,,-99.99,,2013-04-12 22:02:00,
2013-04-12 18:12:00,41.0,40.0,-100.00,ENE,70,22.0,27.0,94,-99.99,,,-99.99,,2013-04-12 22:12:00,
2013-04-12 18:22:00,41.0,40.0,-100.00,ENE,60,20.0,25.0,94,-99.99,,,-99.99,,2013-04-12 22:22:00,
2013-04-12 18:32:00,41.0,40.0,-100.00,ENE,60,20.0,25.0,94,-99.99,,,-99.99,,2013-04-12 22:32:00,
2013-04-12 18:42:00,41.0,40.0,-100.00,ENE,60,18.0,20.0,93,-99.99,,,-99.99,,2013-04-12 22:42:00,
2013-04-12 18:52:00,41.0,40.0,-100.00,ENE,60,18.0,20.0,93,-99.99,,,-99.99,,2013-04-12 22:52:00,
2013-04-12 19:00:00,42.0,40.0,-100.00,NNE,30,16.0,20.0,92,-99.99,,,-99.99,,2013-04-12 23:00:00,
2013-04-12 19:11:00,41.0,40.0,-100.00,ENE,60,16.0,22.0,93,-99.99,,,-99.99,,2013-04-12 23:11:00,
2013-04-12 19:21:00,41.0,40.0,-100.00,ENE,60,16.0,22.0,93,-99.99,,,-99.99,,2013-04-12 23:21:00,
2013-04-12 19:31:00,42.0,40.0,-100.00,NE,40,16.0,20.0,93,-99.99,,,-99.99,,2013-04-12 23:31:00,
2013-04-12 19:42:00,42.0,40.0,-100.00,NNE,30,16.0,20.0,92,-99.99,,,-99.99,,2013-04-12 23:42:00,
2013-04-12 19:51:00,42.0,40.0,-100.00,NNE,30,16.0,20.0,92,-99.99,,,-99.99,,2013-04-12 23:51:00,
2013-04-12 20:00:00,41.0,39.0,-100.00,NNE,20,18.0,22.0,91,-99.99,,,-99.99,,2013-04-13 00:00:00,
2013-04-12 20:11:00,42.0,39.0,-100.00,NNE,20,16.0,20.0,91,-99.99,,,-99.99,,2013-04-13 00:11:00,
2013-04-12 20:32:00,41.0,39.0,-100.00,NNE,20,16.0,20.0,91,-99.99,,,-99.99,,2013-04-13 00:32:00,
2013-04-12 20:41:00,41.0,39.0,-100.00,NNE,20,16.0,20.0,91,-99.99,,,-99.99,,2013-04-13 00:41:00,
2013-04-12 20:51:00,41.0,39.0,-100.00,NNE,20,18.0,22.0,91,-99.99,,,-99.99,,2013-04-13 00:51:00,
2013-04-12 21:11:00,41.0,39.0,-100.00,NE,40,18.0,20.0,92,-99.99,,,-99.99,,2013-04-13 01:11:00,
2013-04-12 21:21:00,41.0,39.0,-100.00,NE,40,18.0,20.0,92,-99.99,,,-99.99,,2013-04-13 01:21:00,
2013-04-12 21:31:00,41.0,39.0,-100.00,NE,40,18.0,20.0,92,-99.99,,,-99.99,,2013-04-13 01:31:00,
2013-04-12 21:41:00,41.0,38.0,-100.00,NNE,30,18.0,20.0,91,-99.99,,,-99.99,,2013-04-13 01:41:00,
2013-04-12 21:51:00,41.0,38.0,-100.00,NNE,30,18.0,20.0,91,-99.99,,,-99.99,,2013-04-13 01:51:00,
2013-04-12 22:01:00,41.0,38.0,-100.00,NNE,30,18.0,20.0,91,-99.99,,,-99.99,,2013-04-13 02:01:00,
2013-04-12 22:31:00,41.0,38.0,-100.00,NE,40,16.0,20.0,91,-99.99,,,-99.99,,2013-04-13 02:31:00,
2013-04-12 22:42:00,40.0,38.0,-100.00,NE,50,18.0,20.0,91,-99.99,,,-99.99,,2013-04-13 02:42:00,
2013-04-12 22:51:00,40.0,38.0,-100.00,NE,50,18.0,20.0,91,-99.99,,,-99.99,,2013-04-13 02:51:00,
2013-04-12 23:01:00,40.0,38.0,-100.00,NE,50,16.0,18.0,91,-99.99,,,-99.99,,2013-04-13 03:01:00,
2013-04-12 23:11:00,40.0,38.0,-100.00,NE,50,16.0,18.0,91,-99.99,,,-99.99,,2013-04-13 03:11:00,
2013-04-12 23:21:00,40.0,38.0,-100.00,NE,50,16.0,20.0,91,-99.99,,,-99.99,,2013-04-13 03:21:00,
2013-04-12 23:32:00,40.0,38.0,-100.00,NE,50,16.0,20.0,91,-99.99,,,-99.99,,2013-04-13 03:32:00,
2013-04-12 23:42:00,40.0,38.0,-100.00,NE,50,16.0,20.0,91,-99.99,,,-99.99,,2013-04-13 03:42:00,
2013-04-12 23:52:00,40.0,38.0,-100.00,NE,50,16.0,20.0,91,-99.99,,,-99.99,,2013-04-13 03:52:00,